Location: Madison
(43.0730°N, 89.3819°W)
Time: 22:38:01
(UTC-06:00)

ISS - Pass Details

Date: 01 February 2019
Orbit: 403 x 411 km, 51.6° (Epoch: 17 February)

Event Time Altitude Azimuth Distance (km) Brightness Sun altitude
Rises 19:41:50 0° 305° (NW) 2,340 0.9 -27.9°
Reaches altitude 10° 19:44:04 10° 316° (NW) 1,479 -0.4 -28.3°
Enters shadow 19:44:18 11° 318° (NW) 1,396 -0.6 -28.4°
